Regional Weather Roundup
Issued by NWS Upton, NY

Current Version | Previous Version | Text Only | Print | Product List | Glossary On
Versions: 1 2 3 4 5 6 7 8 9 10 11 12 13 14 15 16 17 18 19 20 21 22 23 24 25 26 27 28 29 30 31 32 33 34 35 36 37 38 39 40 41 42 43 44 45 46 47 48 49 50
593
ASUS41 KOKX 271404
RWROKX

REGIONAL WEATHER ROUNDUP
NATIONAL WEATHER SERVICE NEW YORK NY
1000 AM EDT SAT AUG 27 2016

NOTE: "FAIR" INDICATES FEW OR NO CLOUDS BELOW 12,000 FEET WITH NO
SIGNIFICANT WEATHER AND/OR OBSTRUCTIONS TO VISIBILITY.

NYZ071-072-176-178-NJZ106-104-271500-
NEW YORK CITY METRO AREA

CITY           SKY/WX    TMP DP  RH WIND       PRES   REMARKS
Central Park     N/A     81  59  47 MISG        N/A
LaGuardia APRT MOSUNNY   81  63  54 NE9       30.19R
Kennedy INTL   MOSUNNY   83  62  49 NE7       30.19R
Newark/Liberty MOSUNNY   82  62  50 N9        30.19R
Bronx Bot Gard   N/A     82  57  42 N5        30.21R
Wall St Helipt SUNNY     84  61  45 NE10G16   30.19R
Teterboro      SUNNY     82  63  52 N6        30.18S
$$

NYZ177-179-078>081-271500-
LONG ISLAND NEW YORK

CITY           SKY/WX    TMP DP  RH WIND       PRES   REMARKS
Farmingdale    SUNNY     82  61  48 NE8       30.19R
MacArthur/ISP  MOSUNNY   83  61  47 NE10      30.18R
Shirley        SUNNY     81  62  52 VRB6      30.19R
Riverhead      NOT AVBL
Westhampton    SUNNY     81  60  48 NE12      30.20R
Southampton      N/A     82  66  57 NE3       30.15R
Bridgehampton    N/A     77  66  69 CALM      30.17S
East Hampton   FAIR      78  63  60 N6        30.18R
Montauk          N/A     76  63  64 NE5       30.19R
$$

NYZ052-065-067-271500-
HUDSON VALLEY

CITY           SKY/WX    TMP DP  RH WIND       PRES   REMARKS
White Plains   SUNNY     81  62  52 NE5       30.20R
Newburgh       SUNNY     75  66  73 CALM      30.23R
Montgomery     SUNNY     77  64  64 NE5       30.22R
Poughkeepsie   SUNNY     76  64  66 CALM      30.20S
Albany         MOSUNNY   74  64  71 CALM      30.21S
$$

NJZ001-105-106-008-010-013-015-019>022-104-271500-
NEW JERSEY

CITY           SKY/WX    TMP DP  RH WIND       PRES   REMARKS
Newark/Liberty MOSUNNY   82  62  50 N9        30.19R
Teterboro      SUNNY     82  63  52 N6        30.18S
Caldwell       SUNNY     80  64  58 VRB3      30.20S
Morristown     MOSUNNY   79  64  61 E5        30.20S
Somerville     SUNNY     82  62  50 VRB6      30.18S
Linden         FAIR      83  55  38 E8        30.20S
Sussex         LGT RAIN  76  65  68 NE3       30.23R
Abdover          N/A     76  65  68 VRB3      30.23R
Trenton        SUNNY     81  62  52 NE9       30.19R
Millville      SUNNY     82  64  54 NE9       30.18R
Atlantic City  SUNNY     83  63  50 NE9       30.17R
Wrightstown    SUNNY     80  65  58 NE10      30.16
Toms River     SUNNY     82  63  52 NE12      30.19R
Belmar         SUNNY     82  61  48 NE8       30.20R
$$

PAZ047>061-062-071-271500-
EASTERN PENNSYLVANIA

CITY           SKY/WX    TMP DP  RH WIND       PRES   REMARKS
Philadelphia   MOSUNNY   83  61  47 NE9       30.19R
Allentown      SUNNY     79  63  57 NE6       30.22R
Scranton       SUNNY     76  63  64 N3        30.24R
$$

CTZ002-004>006-009-010-012-RIZ004-006-007-MAZ004-011-015-271500-
SOUTHERN NEW ENGLAND
 IN CT

CITY           SKY/WX    TMP DP  RH WIND       PRES   REMARKS
Bradley INTL   MOSUNNY   78  63  59 VRB5      30.21R
Hartford       SUNNY     80  64  58 NE5       30.20R
Danbury        SUNNY     78  63  59 VRB3      30.22R
Wtrbury/Oxford SUNNY     75  61  60 NE6       30.24R
Bridgeport     SUNNY     80  64  58 E5        30.19R
Meriden        SUNNY     81  62  52 NE6       30.20R
New Haven      SUNNY     81  61  50 NE8       30.19R
Chester        FAIR      79  63  57 NE5       30.21R
Groton         SUNNY     82  63  52 NE8       30.18R
Wilimantic     SUNNY     79  65  62 CALM      30.20R

 IN RI

CITY           SKY/WX    TMP DP  RH WIND       PRES   REMARKS
Providence     MOSUNNY   81  58  45 NE7       30.19R
Block Island   SUNNY     77  64  64 NE9       30.19R
Westerly       SUNNY     81  59  47 VRB6      30.19R
 IN MA

CITY           SKY/WX    TMP DP  RH WIND       PRES   REMARKS
Boston         MOSUNNY   82  60  47 NE6       30.18R
Worcester      SUNNY     78  57  48 N5        30.23R
Westfield      SUNNY     78  63  59 CALM      30.20R
Provincetown   SUNNY     73  65  75 N10       30.19R
Nantucket      SUNNY     79  63  57 N14       30.16R
$$

ANZ330-335-338-340-345-350-353-355-271500-
COASTAL MARINE OBSERVATIONS


STATION/POSITION TIME  SKY/WX   TEMP    WIND        PRES    VSBY  WAVE
                                AIR SEA DIR/SP/G                  HT/PER
                 (UTC)          (F)     (DEG/KT/KT) (MB)    (MI)  (FT/S)
NY HARB ENTRANCE 1250            75 75   20/ 10/ 12 1021.3          2/ 8
20S FIRE ISLAND  1250            74 74   20/ 12/ 14 1020.8          2/ 8
GREAT SOUTH BAY  1300            77 79   30/  8/ 10   N/A
23 SSW MONTAUK P 1250            74 75   20/ 10/ 12 1021.6          2/ 8
15 E BARNEGAT LI 1300               75                N/A           3/ 4
HUDSON CANYON    1250            79 78              1020.1          3/ 4
KINGS POINT      1300            77 76              1021.9
EXECUTION ROCKS  1300            76      60/  6/  8   N/A
CENTRAL LI SOUND 1300            74 74  360/  6/  8   N/A           1
EASTERN LI SOUND 1300            79 70   10/  6/  8   N/A
ROBBINS REEF     1300            77     360/  9/  9 1021.2
$$


>>>>>>>>>>>>>>>>>>>>>>>>>>>> KEY <<<<<<<<<<<<<<<<<<<<<<<<<<<
>                                                          <
>     SKY/WX - Sky Condition/Present Weather               <
>     TMP    - Temperature in Fahrenheit                   <
>     DP     - Dew Point in Fahrenheit                     <
>     RH     - Relative Humidity in Percent                <
>     WIND   - Direction (from) and Speed in MPH           <
>     PRES   - Mean Sea Level Pressure (inches of Hg)      <
>     WCI    - Wind Chill Index                            <
>     VSB    - VISIBILITY IN MILES                         <
>     HX     - HEAT INDEX                                  <
>     TC     - TEMPERATURE IN CELSIUS                      <
>     VRB    - VARIABLE WIND DIRECTION                     <
>                                                          <
>>>>>>>>>>>>>>>>>>>>>>>>>>>> KEY <<<<<<<<<<<<<<<<<<<<<<<<<<<




USA.gov is the U.S. government's official web portal to all federal, state and local government web resources and services.